Zurück zum Katalog

COSMOS 1252

AktivMilitärLEO
NORAD 12322·PAYLOAD·🇷🇺 Russia

Gestartet Mar 6, 1981 von Plesetsk Cosmodrome

Loading…

Nächste Überflüge (nächste 24 Stunden)

TLE

AktuellSource: Space-Track

Epoche: Sep 14, 2026, 07:26 UTC

1 12322U 81022C   26257.31020304 -.00000010  00000-0  34713-4 0  9992
2 12322  74.0332  14.8802 0034146  92.7256 295.7265 12.54812402 85337

Verfolge COSMOS 1252 in Echtzeit mit AllMySat

Download on the App Store